FLOCK 2K-45 (42856 NORAD) Tracking and Keplerian Element Data

This shows tracking and keplerian element data for the satellite.

Feedback or suggestion? Click here.




ElementValue
Catalog42856
NameFLOCK 2K-45
Epoch Orbit3278
Epoch Day45.39527914
Epoch Year2018
RAAN308.1616
Inclination96.9924
Eccentricity0.0009984
Argument of Perigee186.1985
Mean Anonmoly173.9138
Mean Motion15.3562254
Decay Rate7.156E-05
L11 42856U 17042AH 18045.39527914 .00007156 00000-0 20848-3 0 9991
L22 42856 96.9924 308.1616 0009984 186.1985 173.9138 15.35622540 32784

Live tracking and technical data element details for FLOCK 2K-45 (NORAD 42856). FLOCK 2K-45 can be tracked NOW for your location showing map with azimuth and elevation plus other details from your city location.

Track the satellite on the map from your city or location and see movement details for azimuth, elevation, latitude, longitude, range, height, and movement on the map or in text.







IsCatalogInMostPopularTable: catalog: 42856, numindb: 119
Update: records affected: 1



GetName: 42856 FLOCK 2K-45

Hit Count: updated at: Sun, 16 Dec 2018 11:46:39 GMT